Location: Unspecified
(0.0000°N, 0.0000°E)
Time: 11:23:03
(UTC+00:00)

Explorer 11/Cluster Stage 4 - Pass Details

Date: 09 October 2020
Orbit: 467 x 1258 km, 28.8° (Epoch: 28 October)

Event Time Altitude Azimuth Distance (km) Brightness Sun altitude
Rises 13:45:01 0° 219° (SW) 3,781 10.4 59.9°
Reaches altitude 10° 13:48:44 10° 203° (SSW) 2,668 9.7 59.0°
Maximum altitude 13:53:15 20° 158° (SSE) 1,847 8.7 57.9°
Drops below altitude 10° 13:57:09 10° 111° (ESE) 2,255 8.8 56.9°
Sets 13:59:57 0° 94° (E) 3,030 9.3 56.2°
